Location: Corte Bragagnani
(45.3000°N, 11.1000°E)
Time: 00:44:20
(UTC+00:00)

Cosmos 1703 - Pass Details

Date: 09 April 2020
Orbit: 524 x 540 km, 82.5° (Epoch: 30 May)

Event Time Altitude Azimuth Distance (km) Brightness Sun altitude
Rises 19:00:29 0° 347° (NNW) 2,706 7.4 -11.9°
Reaches altitude 10° 19:02:39 10° 344° (NNW) 1,811 6.6 -12.2°
Maximum altitude 19:06:34 58° 265° (W) 633 3.9 -12.8°
Drops below altitude 10° 19:10:28 10° 186° (S) 1,799 5.7 -13.4°
Sets 19:12:37 0° 182° (S) 2,685 6.6 -13.8°
